Lubbock, TX

12:33 PM CDT on August 19, 2017 (GMT -0500)
Lubbock International

Weather History for KLBB - April, 2013

Change the Weather History Date:

Thursday, April 11, 2013

  Actual Average Record
Temperature  
Mean Temperature 49 °F 59 °F  
Max Temperature 69 °F 74 °F 94 °F (1972)
Min Temperature 29 °F 44 °F 25 °F (1932)
Degree Days  
Heating Degree Days 16 7  
Month to date heating degree days 120 91  
Since 1 July heating degree days 3006 3245  
Cooling Degree Days 0 1  
Month to date cooling degree days 13 11  
Year to date cooling degree days 15 18  
Moisture  
Dew Point 16 °F    
Average Humidity 32    
Maximum Humidity 53    
Minimum Humidity 11    
Precipitation  
Precipitation 0.00 in 0.04 in 1.11 in (1954)
Month to date precipitation 0.04 0.45  
Year to date precipitation 2.27 2.95  
Snow  
Snow 0.00 in 0.00 in T in (1997)
Month to date snowfall 0.4 0.1  
Since 1 July snowfall 4.1 8.1  
Snow Depth 0.00 in    
Sea Level Pressure  
Sea Level Pressure 29.83 in    
Wind  
Wind Speed 8 mph (South)    
Max Wind Speed 22 mph    
Max Gust Speed 29 mph    
Visibility 10 miles    
Events      
T = Trace of Precipitation, MM = Missing Value Source: NWS Daily Summary

Daily Weather History Graph

Daily Weather History Graph

Search for Another Location

Airport or City:

Trip Planner

Search our weather history database for the weather conditions in past years. The results will help you decide how hot, cold, wet, or windy it might be!

Date:

Astronomy

Apr. 11, 2013 Rise Set
Actual Time 7:21 AM CDT 8:15 PM CDT
Civil Twilight 6:55 AM CDT 8:41 PM CDT
Nautical Twilight 6:25 AM CDT 9:11 PM CDT
Astronomical Twilight 5:54 AM CDT 9:42 PM CDT
Moon 7:58 AM CDT (4/11) 9:46 PM CDT (4/11)
Length of Visible Light 13h 45m
Length of Day
12h 54m
New Moon, 2% of the Moon is Illuminated
Apr 11
New Moon
Apr 18
First Quarter
Apr 25
Full
May 2
Last Quarter
May 9
New

Hourly Weather History & Observations

Time (CDT) Temp. Windchill Dew Point Humidity Pressure Visibility Wind Dir Wind Speed Gust Speed Precip Events Conditions
12:53 AM 35.1 °F 28.6 °F 15.1 °F 44% 29.96 in 10.0 mi NNE 8.1 mph - N/A   Clear
1:53 AM 32.0 °F 26.4 °F 15.1 °F 50% 29.96 in 10.0 mi NE 5.8 mph - N/A   Partly Cloudy
2:53 AM 30.0 °F 24.1 °F 14.0 °F 51% 29.96 in 10.0 mi NE 5.8 mph - N/A   Clear
3:53 AM 28.9 °F 23.9 °F 14.0 °F 54% 29.94 in 10.0 mi NE 4.6 mph - N/A   Partly Cloudy
4:53 AM 30.9 °F 26.2 °F 15.1 °F 52% 29.93 in 10.0 mi South 4.6 mph - N/A   Partly Cloudy
5:53 AM 32.0 °F 24.8 °F 14.0 °F 48% 29.90 in 10.0 mi South 8.1 mph - N/A   Clear
6:53 AM 32.0 °F 24.8 °F 15.1 °F 50% 29.89 in 10.0 mi South 8.1 mph - N/A   Partly Cloudy
7:53 AM 32.0 °F - 15.1 °F 50% 29.91 in 10.0 mi Calm Calm - N/A   Partly Cloudy
8:53 AM 37.0 °F 32.4 °F 15.1 °F 41% 29.91 in 10.0 mi SSE 5.8 mph - N/A   Clear
9:53 AM 42.8 °F 39.3 °F 14.0 °F 31% 29.90 in 10.0 mi SSE 5.8 mph - N/A   Clear
10:53 AM 45.0 °F 40.1 °F 15.1 °F 30% 29.87 in 10.0 mi South 9.2 mph - N/A   Clear
11:53 AM 51.8 °F - 19.4 °F 28% 29.88 in 10.0 mi SW 12.7 mph 18.4 mph N/A   Clear
12:53 PM 57.0 °F - 19.9 °F 24% 29.81 in 10.0 mi SW 11.5 mph 20.7 mph N/A   Clear
1:53 PM 62.1 °F - 19.9 °F 20% 29.78 in 10.0 mi SSW 13.8 mph - N/A   Clear
2:53 PM 64.9 °F - 18.7 °F 17% 29.74 in 10.0 mi SSW 11.5 mph - N/A   Clear
3:53 PM 68.0 °F - 17.1 °F 14% 29.71 in 10.0 mi West 16.1 mph 19.6 mph N/A   Partly Cloudy
4:53 PM 69.1 °F - 14.0 °F 12% 29.70 in 10.0 mi NW 11.5 mph 21.9 mph N/A   Partly Cloudy
5:53 PM 68.0 °F - 17.1 °F 14% 29.71 in 10.0 mi North 9.2 mph 19.6 mph N/A   Partly Cloudy
6:53 PM 66.9 °F - 18.0 °F 15% 29.72 in 10.0 mi North 8.1 mph - N/A   Scattered Clouds
7:53 PM 64.0 °F - 18.0 °F 17% 29.73 in 10.0 mi Variable 4.6 mph - N/A   Partly Cloudy
8:53 PM 61.0 °F - 17.1 °F 18% 29.73 in 10.0 mi NE 3.5 mph - N/A   Partly Cloudy
9:53 PM 55.9 °F - 15.1 °F 20% 29.81 in 10.0 mi SE 4.6 mph - N/A   Clear
10:53 PM 54.0 °F - 15.1 °F 22% 29.78 in 10.0 mi SSE 8.1 mph - N/A   Clear
11:53 PM 52.0 °F - 19.0 °F 27% 29.78 in 10.0 mi South 6.9 mph - N/A   Scattered Clouds